QPF
0.00 0.00 0.00 0.00 0.01 0.01 0.01 0.01 0.01 0.01 0.01 0.01 0.02 0.02 0.02 0.03 0.05 0.09 0.05 0.05 0.03 0.04 0.04 0.06 0.11 0.10 0.07 0.07 0.07 0.08 0.05 0.05 0.06 0.05 0.05 0.06 0.06 0.05 0.03 0.03 0.03 0.03 0.02 0.01
0.00 0.00 0.00 0.00 0.00 0.00 0.00 0.00 0.01 0.01 0.01 0.01 0.02 0.02 0.03 0.05 0.06 0.06 0.05 0.04 0.04 0.05 0.05 0.05 0.08 0.10 0.06 0.05 0.05 0.04 0.03 0.03 0.05 0.04 0.03 0.03 0.04 0.03 0.02 0.03 0.03 0.02 0.01 0.02
0.00 0.00 0.00 0.01 0.01 0.01 0.01 0.01 0.01 0.01 0.01 0.01 0.02 0.05 0.09 0.08 0.05 0.05 0.06 0.07 0.07 0.04 0.04 0.04 0.06 0.09 0.06 0.04 0.03 0.03 0.02 0.02 0.02 0.03 0.03 0.02 0.03 0.03 0.03 0.02 0.02 0.03 0.02 0.02
0.00 0.00 0.00 0.01 0.01 0.01 0.01 0.00 0.00 0.00 0.01 0.02 0.03 0.07 0.11 0.10 0.08 0.06 0.06 0.06 0.06 0.04 0.03 0.03 0.04 0.05 0.04 0.03 0.03 0.04 0.03 0.03 0.02 0.01 0.01 0.01 0.01 0.01 0.02 0.02 0.02 0.02 0.02 0.02
0.00 0.00 0.00 0.01 0.01 0.00 0.00 0.00 0.00 0.01 0.01 0.03 0.06 0.09 0.10 0.09 0.09 0.07 0.05 0.04 0.04 0.04 0.03 0.02 0.02 0.02 0.03 0.02 0.03 0.03 0.03 0.02 0.01 0.01 0.01 0.01 0.01 0.01 0.02 0.02 0.02 0.01 0.02 0.02
0.00 0.00 0.00 0.01 0.01 0.00 0.00 0.00 0.01 0.02 0.03 0.05 0.07 0.08 0.07 0.08 0.08 0.06 0.05 0.04 0.03 0.03 0.02 0.01 0.01 0.01 0.01 0.01 0.02 0.02 0.02 0.02 0.01 0.01 0.01 0.01 0.01 0.02 0.01 0.02 0.01 0.01 0.01 0.01
0.00 0.00 0.00 0.00 0.00 0.01 0.01 0.01 0.02 0.04 0.07 0.07 0.05 0.05 0.03 0.05 0.06 0.05 0.05 0.06 0.03 0.03 0.01 0.01 0.01 0.00 0.00 0.01 0.01 0.01 0.01 0.01 0.01 0.01 0.01 0.01 0.01 0.01 0.01 0.01 0.01 0.00 0.00 0.00
0.00 0.00 0.00 0.00 0.00 0.01 0.01 0.01 0.02 0.05 0.09 0.07 0.06 0.07 0.03 0.02 0.04 0.06 0.09 0.08 0.04 0.02 0.01 0.01 0.01 0.00 0.00 0.00 0.00 0.00 0.01 0.01 0.01 0.01 0.01 0.00 0.00 0.00 0.00 0.00 0.00 0.00 0.00 0.00
0.00 0.01 0.01 0.01 0.01 0.01 0.01 0.01 0.02 0.04 0.07 0.09 0.08 0.10 0.05 0.03 0.03 0.04 0.08 0.05 0.03 0.01 0.01 0.01 0.00 0.00 0.00 0.00 0.00 0.00 0.01 0.00 0.00 0.00 0.00 0.00 0.00 0.00 0.00 0.00 0.00 0.00 0.00 0.00
0.01 0.01 0.01 0.01 0.01 0.01 0.01 0.01 0.02 0.03 0.07 0.12 0.12 0.14 0.10 0.05 0.03 0.04 0.04 0.05 0.03 0.02 0.01 0.01 0.00 0.00 0.00 0.00 0.00 0.01 0.00 0.00 0.00 0.00 0.00 0.00 0.00 0.00 0.00 0.00 0.00 0.00 0.00 0.00
0.01 0.01 0.01 0.01 0.02 0.01 0.02 0.02 0.02 0.03 0.05 0.10 0.11 0.11 0.09 0.05 0.03 0.03 0.04 0.05 0.04 0.02 0.01 0.01 0.01 0.01 0.00 0.00 0.00 0.00 0.00 0.00 0.00 0.00 0.00 0.00 0.00 0.00 0.00 0.00 0.00 0.00 0.00 0.00
0.03 0.04 0.03 0.02 0.02 0.02 0.03 0.04 0.03 0.04 0.06 0.07 0.10 0.08 0.04 0.03 0.02 0.02 0.03 0.04 0.04 0.04 0.03 0.01 0.01 0.01 0.00 0.00 0.00 0.00 0.00 0.00 0.00 0.00 0.00 0.00 0.00 0.00 0.00 0.00 0.00 0.00 0.00 0.00
0.04 0.05 0.05 0.06 0.04 0.03 0.04 0.05 0.04 0.03 0.05 0.06 0.09 0.07 0.04 0.04 0.03 0.02 0.03 0.05 0.05 0.05 0.04 0.02 0.01 0.01 0.00 0.00 0.00 0.00 0.00 0.00 0.00 0.00 0.00 0.00 0.00 0.00 0.00 0.00 0.00 0.00 0.00 0.00
0.04 0.04 0.05 0.05 0.07 0.07 0.05 0.04 0.04 0.03 0.03 0.05 0.06 0.05 0.04 0.05 0.05 0.04 0.03 0.04 0.04 0.04 0.04 0.02 0.01 0.01 0.01 0.00 0.00 0.00 0.00 0.00 0.00 0.00 0.00 0.00 0.00 0.00 0.00 0.00 0.00 0.00 0.00 0.00
0.06 0.04 0.04 0.03 0.04 0.05 0.03 0.03 0.03 0.03 0.03 0.04 0.05 0.05 0.05 0.03 0.03 0.06 0.04 0.03 0.03 0.03 0.05 0.05 0.02 0.01 0.01 0.01 0.01 0.00 0.00 0.00 0.00 0.00 0.00 0.00 0.00 0.00 0.00 0.00 0.00 0.00 0.00 0.00
0.06 0.06 0.06 0.05 0.05 0.05 0.02 0.01 0.02 0.03 0.02 0.02 0.03 0.04 0.03 0.02 0.02 0.05 0.07 0.04 0.03 0.02 0.03 0.03 0.02 0.01 0.02 0.02 0.02 0.01 0.00 0.00 0.00 0.01 0.00 0.00 0.00 0.00 0.00 0.00 0.00 0.00 0.00 0.00
0.05 0.06 0.08 0.09 0.08 0.07 0.04 0.02 0.03 0.04 0.04 0.03 0.03 0.03 0.04 0.03 0.03 0.05 0.06 0.04 0.02 0.01 0.02 0.03 0.03 0.02 0.02 0.02 0.03 0.01 0.00 0.00 0.01 0.01 0.00 0.00 0.00 0.00 0.00 0.00 0.00 0.00 0.00 0.00
0.05 0.08 0.09 0.08 0.07 0.08 0.08 0.04 0.04 0.07 0.07 0.05 0.04 0.05 0.05 0.03 0.03 0.02 0.03 0.02 0.02 0.01 0.01 0.01 0.02 0.04 0.03 0.02 0.03 0.02 0.01 0.01 0.01 0.01 0.00 0.00 0.00 0.00 0.00 0.00 0.00 0.00 0.00 0.01
0.05 0.07 0.10 0.07 0.06 0.05 0.08 0.06 0.06 0.07 0.08 0.08 0.07 0.05 0.05 0.04 0.02 0.01 0.01 0.01 0.01 0.01 0.01 0.00 0.00 0.03 0.07 0.08 0.04 0.03 0.04 0.03 0.02 0.01 0.01 0.01 0.00 0.00 0.00 0.01 0.01 0.01 0.01 0.01
0.03 0.05 0.08 0.07 0.07 0.08 0.07 0.06 0.06 0.09 0.11 0.10 0.09 0.07 0.06 0.05 0.04 0.02 0.01 0.01 0.02 0.01 0.01 0.01 0.01 0.01 0.02 0.05 0.04 0.02 0.03 0.04 0.04 0.04 0.04 0.03 0.02 0.02 0.02 0.02 0.01 0.01 0.01 0.01
0.07 0.08 0.09 0.09 0.10 0.12 0.10 0.08 0.08 0.16 0.15 0.14 0.13 0.11 0.09 0.06 0.04 0.03 0.02 0.02 0.05 0.03 0.02 0.01 0.01 0.01 0.01 0.01 0.01 0.01 0.01 0.01 0.02 0.04 0.06 0.08 0.06 0.05 0.04 0.03 0.02 0.02 0.02 0.02
0.11 0.11 0.10 0.13 0.16 0.15 0.09 0.08 0.11 0.15 0.16 0.14 0.15 0.12 0.11 0.08 0.04 0.03 0.02 0.02 0.02 0.02 0.02 0.02 0.01 0.01 0.01 0.01 0.01 0.01 0.01 0.01 0.02 0.03 0.04 0.05 0.06 0.06 0.05 0.05 0.05 0.06 0.06 0.05
0.11 0.12 0.12 0.11 0.13 0.14 0.13 0.11 0.11 0.13 0.16 0.15 0.12 0.10 0.08 0.06 0.04 0.03 0.03 0.02 0.02 0.01 0.02 0.02 0.02 0.02 0.02 0.02 0.02 0.01 0.01 0.01 0.01 0.02 0.02 0.02 0.02 0.02 0.04 0.05 0.05 0.05 0.05 0.05
0.09 0.10 0.14 0.14 0.15 0.17 0.17 0.15 0.12 0.15 0.14 0.10 0.07 0.06 0.05 0.04 0.04 0.04 0.04 0.04 0.04 0.03 0.03 0.02 0.02 0.02 0.03 0.02 0.02 0.02 0.02 0.01 0.01 0.01 0.01 0.01 0.01 0.02 0.03 0.06 0.06 0.05 0.04 0.04
0.14 0.15 0.17 0.19 0.20 0.18 0.14 0.12 0.10 0.09 0.08 0.07 0.06 0.06 0.05 0.04 0.04 0.04 0.06 0.06 0.07 0.08 0.06 0.05 0.04 0.04 0.04 0.03 0.04 0.03 0.02 0.01 0.01 0.01 0.01 0.01 0.01 0.01 0.02 0.02 0.03 0.03 0.04 0.05
0.12 0.17 0.17 0.19 0.16 0.13 0.11 0.09 0.09 0.10 0.07 0.07 0.06 0.05 0.04 0.03 0.03 0.04 0.06 0.08 0.09 0.11 0.13 0.07 0.04 0.04 0.05 0.06 0.06 0.06 0.04 0.03 0.03 0.02 0.02 0.02 0.02 0.01 0.02 0.02 0.02 0.03 0.04 0.05
MSLP
1010.74 1011.27 1011.58 1011.74 1011.79 1011.82 1011.88 1012.03 1012.23 1012.48 1012.70 1012.85 1012.91 1012.87 1012.75 1012.61 1012.52 1012.52 1012.66 1012.92 1013.28 1013.68 1014.04 1014.32 1014.48 1014.51 1014.45 1014.36 1014.31 1014.34 1014.50 1014.80 1015.21 1015.67 1016.14 1016.55 1016.86 1017.08 1017.20 1017.26 1017.33 1017.43 1017.60 1017.86
1011.11 1011.45 1011.56 1011.53 1011.46 1011.45 1011.56 1011.82 1012.19 1012.61 1012.99 1013.25 1013.35 1013.28 1013.09 1012.84 1012.63 1012.54 1012.61 1012.86 1013.24 1013.69 1014.13 1014.47 1014.66 1014.71 1014.64 1014.51 1014.41 1014.40 1014.55 1014.85 1015.29 1015.80 1016.32 1016.77 1017.12 1017.34 1017.45 1017.49 1017.53 1017.61 1017.77 1018.03
1011.19 1011.33 1011.25 1011.07 1010.92 1010.91 1011.12 1011.55 1012.14 1012.78 1013.35 1013.75 1013.91 1013.83 1013.55 1013.18 1012.82 1012.60 1012.57 1012.76 1013.14 1013.63 1014.13 1014.54 1014.80 1014.89 1014.84 1014.71 1014.59 1014.56 1014.68 1014.97 1015.41 1015.94 1016.48 1016.96 1017.33 1017.56 1017.67 1017.70 1017.72 1017.79 1017.95 1018.21
1010.99 1010.94 1010.70 1010.41 1010.24 1010.30 1010.67 1011.32 1012.16 1013.05 1013.83 1014.37 1014.59 1014.48 1014.10 1013.57 1013.04 1012.64 1012.48 1012.58 1012.93 1013.43 1013.99 1014.48 1014.83 1015.00 1015.00 1014.90 1014.78 1014.74 1014.84 1015.11 1015.53 1016.05 1016.60 1017.09 1017.47 1017.72 1017.83 1017.87 1017.90 1017.97 1018.13 1018.39
1010.57 1010.36 1010.00 1009.68 1009.54 1009.73 1010.29 1011.19 1012.30 1013.44 1014.42 1015.09 1015.35 1015.19 1014.68 1013.97 1013.23 1012.63 1012.30 1012.28 1012.56 1013.06 1013.67 1014.25 1014.70 1014.97 1015.06 1015.01 1014.93 1014.88 1014.96 1015.20 1015.60 1016.09 1016.63 1017.12 1017.52 1017.79 1017.93 1018.00 1018.04 1018.12 1018.29 1018.55
1010.01 1009.69 1009.28 1008.96 1008.92 1009.28 1010.05 1011.20 1012.55 1013.91 1015.06 1015.82 1016.08 1015.85 1015.20 1014.29 1013.33 1012.52 1012.00 1011.84 1012.05 1012.54 1013.19 1013.85 1014.41 1014.80 1014.99 1015.03 1014.99 1014.96 1015.03 1015.23 1015.59 1016.05 1016.56 1017.06 1017.47 1017.77 1017.96 1018.07 1018.15 1018.26 1018.43 1018.69
1009.41 1009.02 1008.61 1008.37 1008.45 1008.98 1009.96 1011.32 1012.87 1014.39 1015.64 1016.44 1016.68 1016.35 1015.55 1014.45 1013.29 1012.27 1011.58 1011.29 1011.42 1011.89 1012.57 1013.32 1013.99 1014.50 1014.80 1014.94 1014.96 1014.96 1015.02 1015.20 1015.51 1015.94 1016.43 1016.92 1017.36 1017.70 1017.94 1018.10 1018.22 1018.36 1018.54 1018.79
1008.84 1008.45 1008.09 1007.94 1008.16 1008.85 1009.99 1011.49 1013.17 1014.77 1016.05 1016.84 1017.01 1016.58 1015.65 1014.40 1013.07 1011.90 1011.06 1010.67 1010.73 1011.18 1011.89 1012.71 1013.48 1014.10 1014.52 1014.75 1014.84 1014.88 1014.95 1015.11 1015.39 1015.78 1016.25 1016.74 1017.20 1017.58 1017.88 1018.09 1018.26 1018.43 1018.61 1018.85
1008.36 1008.02 1007.74 1007.71 1008.05 1008.85 1010.08 1011.65 1013.35 1014.93 1016.18 1016.90 1017.00 1016.47 1015.44 1014.09 1012.66 1011.40 1010.48 1010.02 1010.04 1010.48 1011.22 1012.08 1012.94 1013.65 1014.18 1014.50 1014.67 1014.75 1014.84 1014.99 1015.25 1015.62 1016.07 1016.56 1017.04 1017.45 1017.80 1018.06 1018.28 1018.47 1018.66 1018.87
1008.02 1007.76 1007.59 1007.66 1008.09 1008.94 1010.18 1011.71 1013.33 1014.81 1015.95 1016.57 1016.58 1015.99 1014.91 1013.53 1012.09 1010.81 1009.88 1009.40 1009.40 1009.83 1010.58 1011.48 1012.38 1013.17 1013.77 1014.18 1014.42 1014.57 1014.69 1014.86 1015.12 1015.47 1015.91 1016.40 1016.88 1017.33 1017.71 1018.01 1018.26 1018.47 1018.66 1018.86
1007.81 1007.67 1007.62 1007.77 1008.24 1009.07 1010.24 1011.63 1013.08 1014.38 1015.35 1015.83 1015.76 1015.14 1014.08 1012.75 1011.37 1010.16 1009.27 1008.82 1008.83 1009.25 1009.99 1010.88 1011.80 1012.63 1013.30 1013.78 1014.10 1014.31 1014.49 1014.69 1014.97 1015.33 1015.77 1016.25 1016.74 1017.20 1017.60 1017.94 1018.20 1018.42 1018.62 1018.80
1007.75 1007.74 1007.79 1008.01 1008.47 1009.22 1010.22 1011.40 1012.60 1013.66 1014.43 1014.76 1014.62 1014.00 1013.02 1011.80 1010.56 1009.47 1008.68 1008.28 1008.30 1008.71 1009.41 1010.27 1011.17 1012.01 1012.71 1013.25 1013.65 1013.95 1014.20 1014.47 1014.79 1015.17 1015.62 1016.10 1016.60 1017.06 1017.47 1017.82 1018.10 1018.33 1018.52 1018.69
1007.81 1007.93 1008.07 1008.32 1008.73 1009.34 1010.13 1011.04 1011.96 1012.74 1013.28 1013.47 1013.27 1012.69 1011.81 1010.76 1009.69 1008.75 1008.08 1007.75 1007.79 1008.16 1008.79 1009.59 1010.43 1011.25 1011.96 1012.56 1013.04 1013.43 1013.78 1014.13 1014.52 1014.95 1015.42 1015.92 1016.41 1016.88 1017.29 1017.64 1017.93 1018.17 1018.37 1018.54
1007.98 1008.20 1008.41 1008.65 1008.99 1009.43 1009.98 1010.60 1011.21 1011.71 1012.02 1012.07 1011.83 1011.30 1010.55 1009.68 1008.80 1008.03 1007.48 1007.20 1007.23 1007.54 1008.08 1008.78 1009.55 1010.32 1011.03 1011.67 1012.23 1012.74 1013.20 1013.66 1014.14 1014.63 1015.15 1015.66 1016.16 1016.63 1017.04 1017.39 1017.69 1017.94 1018.15 1018.34
1008.22 1008.52 1008.76 1008.99 1009.21 1009.48 1009.79 1010.12 1010.43 1010.66 1010.76 1010.68 1010.41 1009.94 1009.32 1008.62 1007.92 1007.30 1006.85 1006.61 1006.61 1006.84 1007.27 1007.84 1008.51 1009.22 1009.92 1010.60 1011.25 1011.87 1012.46 1013.05 1013.63 1014.20 1014.77 1015.31 1015.82 1016.29 1016.70 1017.06 1017.37 1017.64 1017.87 1018.08
1008.51 1008.85 1009.10 1009.27 1009.39 1009.48 1009.56 1009.63 1009.68 1009.67 1009.59 1009.41 1009.11 1008.69 1008.19 1007.63 1007.08 1006.58 1006.20 1005.97 1005.92 1006.05 1006.35 1006.79 1007.35 1007.99 1008.68 1009.41 1010.14 1010.87 1011.60 1012.31 1013.00 1013.67 1014.29 1014.87 1015.40 1015.87 1016.29 1016.66 1016.99 1017.28 1017.54 1017.77
1008.82 1009.16 1009.37 1009.48 1009.49 1009.43 1009.32 1009.17 1009.00 1008.80 1008.57 1008.30 1007.97 1007.60 1007.18 1006.73 1006.28 1005.87 1005.52 1005.28 1005.16 1005.18 1005.36 1005.68 1006.15 1006.73 1007.41 1008.17 1008.98 1009.83 1010.68 1011.51 1012.31 1013.05 1013.73 1014.35 1014.89 1015.38 1015.80 1016.19 1016.53 1016.85 1017.14 1017.41
1009.13 1009.41 1009.57 1009.60 1009.51 1009.32 1009.05 1008.74 1008.40 1008.05 1007.71 1007.37 1007.02 1006.66 1006.29 1005.91 1005.53 1005.16 1004.82 1004.55 1004.36 1004.30 1004.37 1004.59 1004.98 1005.52 1006.20 1007.00 1007.88 1008.82 1009.77 1010.70 1011.59 1012.40 1013.13 1013.77 1014.33 1014.83 1015.27 1015.66 1016.03 1016.37 1016.69 1016.99
1009.42 1009.61 1009.68 1009.62 1009.43 1009.14 1008.76 1008.33 1007.87 1007.43 1007.00 1006.60 1006.22 1005.86 1005.51 1005.16 1004.80 1004.44 1004.10 1003.80 1003.56 1003.42 1003.42 1003.59 1003.93 1004.44 1005.13 1005.97 1006.91 1007.92 1008.95 1009.95 1010.90 1011.75 1012.51 1013.17 1013.74 1014.24 1014.69 1015.10 1015.48 1015.85 1016.19 1016.50
1009.65 1009.72 1009.69 1009.54 1009.27 1008.89 1008.43 1007.92 1007.39 1006.88 1006.38 1005.93 1005.52 1005.14 1004.77 1004.42 1004.06 1003.69 1003.34 1003.02 1002.76 1002.59 1002.56 1002.70 1003.03 1003.56 1004.27 1005.13 1006.12 1007.18 1008.25 1009.29 1010.26 1011.14 1011.91 1012.57 1013.14 1013.64 1014.09 1014.51 1014.90 1015.28 1015.63 1015.95
1009.80 1009.75 1009.60 1009.36 1009.01 1008.57 1008.06 1007.50 1006.92 1006.36 1005.81 1005.31 1004.85 1004.43 1004.03 1003.65 1003.27 1002.89 1002.53 1002.21 1001.95 1001.80 1001.79 1001.95 1002.30 1002.86 1003.60 1004.49 1005.51 1006.59 1007.68 1008.72 1009.69 1010.56 1011.32 1011.98 1012.54 1013.03 1013.48 1013.89 1014.29 1014.68 1015.03 1015.35
1009.83 1009.65 1009.40 1009.07 1008.65 1008.16 1007.62 1007.03 1006.43 1005.82 1005.24 1004.69 1004.17 1003.69 1003.24 1002.82 1002.41 1002.02 1001.67 1001.37 1001.15 1001.04 1001.09 1001.31 1001.72 1002.32 1003.10 1004.02 1005.05 1006.13 1007.20 1008.23 1009.18 1010.03 1010.76 1011.39 1011.94 1012.42 1012.86 1013.28 1013.67 1014.05 1014.40 1014.70
1009.71 1009.41 1009.06 1008.65 1008.18 1007.66 1007.09 1006.49 1005.87 1005.24 1004.61 1004.01 1003.44 1002.89 1002.38 1001.91 1001.47 1001.08 1000.75 1000.50 1000.34 1000.32 1000.45 1000.76 1001.25 1001.91 1002.73 1003.67 1004.70 1005.76 1006.81 1007.80 1008.71 1009.52 1010.23 1010.84 1011.37 1011.84 1012.27 1012.67 1013.06 1013.42 1013.75 1014.04
1009.40 1009.00 1008.56 1008.09 1007.58 1007.04 1006.47 1005.86 1005.23 1004.58 1003.93 1003.28 1002.65 1002.04 1001.48 1000.96 1000.50 1000.12 999.83 999.64 999.57 999.66 999.90 1000.30 1000.88 1001.60 1002.46 1003.42 1004.43 1005.46 1006.46 1007.41 1008.28 1009.05 1009.72 1010.31 1010.83 1011.29 1011.72 1012.11 1012.48 1012.82 1013.13 1013.40
1008.88 1008.40 1007.89 1007.38 1006.85 1006.30 1005.73 1005.14 1004.51 1003.86 1003.19 1002.51 1001.84 1001.19 1000.58 1000.04 999.58 999.22 998.98 998.87 998.91 999.10 999.46 999.97 1000.62 1001.40 1002.29 1003.24 1004.22 1005.21 1006.17 1007.06 1007.88 1008.62 1009.27 1009.85 1010.36 1010.82 1011.23 1011.62 1011.96 1012.28 1012.56 1012.79
1008.15 1007.61 1007.06 1006.52 1005.99 1005.45 1004.91 1004.35 1003.75 1003.12 1002.45 1001.77 1001.08 1000.41 999.79 999.25 998.81 998.50 998.32 998.31 998.45 998.75 999.21 999.81 1000.53 1001.35 1002.24 1003.17 1004.11 1005.04 1005.94 1006.78 1007.56 1008.26 1008.90 1009.47 1009.98 1010.43 1010.84 1011.21 1011.54 1011.82 1012.05 1012.24
Thickness
5781 5763 5752 5759 5765 5764 5762 5755 5752 5763 5778 5768 5758 5754 5756 5758 5755 5750 5746 5743 5739 5736 5736 5736 5737 5735 5731 5730 5729 5727 5726 5726 5726 5725 5722 5720 5719 5720 5721 5721 5721 5721 5721 5722
5758 5752 5770 5777 5777 5772 5764 5754 5754 5765 5777 5766 5753 5749 5755 5755 5754 5752 5748 5743 5740 5734 5732 5732 5732 5731 5729 5727 5726 5725 5725 5725 5725 5724 5723 5721 5719 5718 5718 5718 5718 5719 5719 5719
5749 5764 5780 5776 5770 5766 5762 5755 5756 5758 5767 5764 5752 5738 5742 5749 5751 5750 5748 5746 5743 5737 5732 5730 5729 5728 5727 5725 5725 5726 5724 5724 5723 5723 5721 5719 5716 5714 5713 5713 5714 5716 5716 5716
5757 5774 5775 5769 5767 5767 5753 5773 5773 5766 5748 5734 5743 5716 5733 5740 5741 5744 5745 5743 5741 5738 5734 5730 5729 5728 5727 5726 5725 5724 5723 5722 5722 5722 5720 5716 5713 5709 5710 5711 5712 5713 5714 5713
5756 5770 5767 5763 5771 5775 5764 5779 5772 5764 5745 5730 5731 5719 5725 5736 5734 5740 5744 5744 5743 5741 5737 5733 5732 5731 5729 5728 5725 5723 5721 5721 5721 5721 5719 5716 5713 5712 5711 5711 5710 5710 5710 5710
5766 5780 5777 5775 5784 5783 5778 5768 5757 5744 5730 5711 5722 5717 5718 5728 5739 5745 5747 5746 5744 5742 5739 5736 5735 5732 5729 5728 5725 5722 5720 5719 5719 5719 5718 5716 5713 5711 5709 5708 5707 5706 5706 5707
5751 5765 5778 5783 5768 5772 5765 5738 5714 5710 5699 5702 5722 5720 5724 5747 5756 5756 5752 5749 5748 5746 5741 5737 5734 5731 5729 5727 5725 5722 5719 5717 5717 5717 5716 5715 5714 5712 5710 5708 5706 5705 5703 5703
5728 5733 5764 5774 5765 5756 5755 5740 5710 5697 5693 5701 5716 5714 5735 5760 5765 5765 5761 5755 5751 5746 5744 5741 5738 5734 5732 5729 5726 5723 5720 5717 5716 5715 5714 5714 5714 5712 5710 5709 5707 5705 5704 5703
5726 5732 5767 5776 5778 5767 5750 5738 5739 5714 5704 5696 5705 5721 5741 5760 5760 5761 5758 5754 5751 5749 5746 5743 5740 5737 5735 5731 5728 5725 5722 5719 5717 5716 5715 5713 5713 5711 5710 5708 5707 5706 5705 5704
5739 5729 5751 5767 5772 5768 5758 5746 5726 5710 5694 5688 5701 5711 5721 5743 5748 5753 5753 5752 5752 5751 5748 5746 5742 5740 5738 5735 5730 5727 5724 5721 5719 5717 5715 5714 5712 5711 5710 5708 5706 5705 5704 5703
5739 5723 5733 5746 5744 5742 5743 5734 5723 5709 5707 5693 5689 5710 5749 5750 5754 5754 5755 5756 5755 5754 5752 5748 5746 5743 5739 5736 5731 5727 5724 5721 5719 5717 5716 5714 5712 5710 5709 5707 5706 5704 5703 5701
5729 5716 5711 5729 5751 5759 5749 5735 5722 5704 5699 5701 5696 5715 5766 5762 5761 5760 5759 5759 5759 5759 5757 5753 5748 5744 5739 5735 5733 5729 5726 5723 5721 5719 5716 5714 5711 5710 5708 5706 5705 5703 5701 5700
5725 5708 5697 5707 5723 5737 5735 5732 5727 5715 5703 5697 5695 5719 5763 5763 5762 5762 5762 5760 5760 5758 5756 5753 5749 5745 5742 5738 5734 5731 5728 5726 5723 5720 5716 5713 5710 5708 5707 5705 5704 5702 5700 5698
5727 5704 5697 5695 5705 5720 5723 5730 5729 5715 5699 5698 5709 5726 5749 5756 5759 5760 5763 5763 5762 5760 5758 5754 5750 5748 5745 5741 5738 5734 5730 5728 5724 5720 5716 5713 5710 5708 5707 5704 5702 5701 5699 5697
5716 5701 5705 5711 5720 5723 5725 5730 5732 5724 5719 5713 5723 5732 5748 5756 5762 5765 5766 5764 5762 5760 5759 5757 5754 5750 5747 5743 5739 5736 5732 5729 5726 5721 5716 5714 5711 5709 5706 5703 5701 5699 5698 5696
5705 5699 5701 5705 5718 5720 5723 5732 5733 5733 5733 5731 5735 5739 5759 5764 5766 5766 5766 5765 5762 5763 5763 5761 5758 5754 5750 5746 5742 5738 5734 5731 5727 5722 5718 5715 5712 5708 5705 5703 5700 5697 5695 5693
5695 5691 5689 5688 5706 5708 5705 5723 5729 5732 5738 5737 5732 5744 5757 5757 5762 5765 5767 5769 5768 5768 5768 5765 5762 5759 5756 5752 5748 5742 5738 5733 5728 5723 5719 5715 5712 5708 5705 5703 5699 5696 5693 5691
5691 5686 5680 5680 5687 5680 5708 5732 5735 5733 5737 5743 5746 5752 5758 5761 5766 5771 5772 5771 5771 5772 5771 5769 5766 5762 5759 5756 5751 5746 5740 5734 5728 5723 5720 5716 5712 5708 5704 5701 5698 5695 5692 5689
5696 5687 5677 5672 5673 5689 5710 5723 5726 5723 5726 5742 5743 5751 5759 5765 5763 5764 5773 5776 5776 5777 5776 5773 5771 5766 5762 5757 5752 5745 5738 5733 5728 5724 5720 5717 5713 5708 5704 5700 5697 5694 5691 5688
5690 5687 5677 5672 5672 5676 5701 5722 5732 5726 5713 5736 5741 5744 5751 5753 5739 5751 5771 5775 5775 5776 5775 5773 5770 5764 5760 5757 5752 5744 5737 5733 5729 5726 5723 5719 5714 5709 5704 5700 5697 5694 5691 5688
5670 5671 5670 5669 5670 5683 5707 5721 5726 5702 5708 5733 5738 5742 5745 5745 5750 5761 5770 5773 5774 5774 5774 5773 5768 5763 5760 5756 5750 5742 5736 5733 5732 5728 5723 5718 5713 5709 5705 5700 5696 5692 5689 5685
5661 5661 5663 5665 5665 5676 5708 5712 5707 5710 5724 5730 5736 5741 5744 5749 5756 5761 5766 5770 5772 5771 5771 5770 5765 5760 5758 5754 5748 5740 5736 5736 5731 5725 5720 5715 5712 5708 5704 5697 5693 5690 5686 5682
5661 5663 5663 5667 5673 5690 5701 5705 5713 5719 5721 5726 5732 5740 5744 5746 5750 5756 5760 5764 5768 5769 5768 5766 5762 5756 5753 5751 5747 5740 5737 5732 5727 5721 5716 5712 5708 5704 5701 5695 5690 5685 5682 5678
5663 5668 5665 5667 5677 5688 5697 5704 5711 5717 5720 5726 5732 5736 5740 5743 5747 5751 5754 5756 5759 5761 5762 5761 5756 5750 5746 5745 5743 5739 5734 5729 5723 5717 5712 5708 5703 5699 5696 5692 5688 5683 5679 5675
5660 5662 5661 5664 5674 5683 5692 5699 5706 5713 5719 5725 5729 5733 5736 5741 5742 5744 5746 5748 5751 5754 5755 5754 5749 5745 5741 5738 5735 5733 5729 5724 5718 5713 5709 5704 5700 5696 5691 5688 5686 5683 5680 5677
5657 5657 5657 5660 5670 5672 5681 5693 5702 5706 5711 5716 5719 5723 5729 5734 5735 5737 5738 5740 5742 5743 5744 5742 5740 5737 5734 5732 5728 5726 5723 5719 5713 5707 5703 5699 5695 5691 5687 5682 5679 5679 5677 5675